Simultaneous Nadir Overpasses (SNOs) Predictions

Prediction of SNOs between LANDSAT-8 and NOAA-19 Satellite Orbit:

Table of predicted SNOs for the next 14.0 days since TLE Epoch: 11/6/2021
Index Date (LANDSAT-8) Time (LANDSAT-8) Lat,Lon (LANDSAT-8) SZA (LANDSAT-8 ) Date (NOAA-19) Time (NOAA-19) Lat,Lon (NOAA-19) SZA (NOAA-19 ) Distance(km) Time Diff (sec)
1 11/07/2021 02:10:46 80.60,-179.37 98.73 11/07/2021 02:09:43 80.58,-179.29 98.69 2.64 63
2 11/07/2021 03:00:13 -80.60, -11.78 81.28 11/07/2021 03:00:42 -80.58, -11.88 81.29 2.96 29
3 11/09/2021 08:33:56 80.60, 84.78 99.37 11/09/2021 08:33:48 80.58, 84.74 99.35 1.63 8
4 11/11/2021 14:07:40 -80.59,-178.77 80.05 11/11/2021 14:06:54 -80.59,-178.67 80.05 2.02 46
5 11/11/2021 14:57:06 80.59, -11.11 99.97 11/11/2021 14:57:53 80.59, -11.26 99.98 2.70 47
6 11/13/2021 20:30:49 -80.61, 85.64 79.42 11/13/2021 20:30:59 -80.59, 85.52 79.44 2.90 10
7 11/16/2021 02:04:32 80.59,-177.98 101.11 11/16/2021 02:04:03 80.60,-177.90 101.12 1.88 29
8 11/16/2021 02:53:59 -80.59, -10.31 78.88 11/16/2021 02:55:04 -80.58, -10.32 78.86 0.71 65
9 11/18/2021 07:38:15 -80.60, -81.27 78.34 11/18/2021 07:37:10 -80.60, -81.11 78.35 2.90 65



Historial Predications of SNOs between LANDSAT-8 and NOAA-19
